DMSP 5D-2 F13 DEB, 40523

Orbit data source: Space-Track

DMSP 5D-2 F13 DEB, 40523 is space debris in SSO originally from a launch on Fri, 24 Mar 1995 UTC launched from the Air Force Western Test Range (AFWTR). Debris objects in space refer to the collection of defunct objects orbiting the Earth. Examples of debris include non-operational satellites, rocket bodies, and fragments generated from explosions, collisions, or faulty payload assembly.

Loading next visibility...
Identifier
40523, 1995-015DK
Orbit
SSO
Country
Flag of USUS
Related business
Manufacturer
Unknown
Mission
Spacecraft
Bus & Motor
Unknown
Mass
Unknown
Launch date (UTC)
1995-03-24 (31 years ago)
Launch vehicle
Unknown
Launch site
Air Force Western Test Range (AFWTR)
Object type
Payload
Rocket body
Debris
Shape & HBR
Unknown shape, 0.1 m
Radar Cross Section
Medium (>0.1 m² and <1 m²)

Expand to show TLE details & history
Last TLE update: 2 days ago

TLE from 2 days ago
0 DMSP 5D-2 F13 DEB
1 40523U 95015DK  26237.13185151  .00004956  00000-0  12329-2 0  9992
2 40523  98.6032 297.3540 0010236   7.4004 352.7340 14.52163667595803
Epoch: 2026-08-25T03:09Z
TLE epoch observation values (Epoch: 2026-08-25T03:09:51.970Z)
Latitude
-0°
Longitude
-83.51614°
Altitude
714.345 km
Speed
7.502 km/s
True Right ascension
19h 49m 24s
True Declination
0° 00' 00"
Sunlit
Object was in full shadow at epoch
Visualization orbit readout
Latitude
Unknown
Longitude
Unknown
Altitude
Unknown
Speed
Unknown
Apparent Right ascension
Unknown
Apparent Declination
Unknown
Sunlit
N/A
Visualization observer readout
Local Sidereal Time
11:12:37
Azimuth
Unknown
Elevation
Unknown
Doppler factor
Unknown
Orbital elements
Apogee altitude
722.962 km
Perigee altitude
708.44 km
Semi-major axis
7,093.838 km
Eccentricity
0.00102
Inclination
98.6032°
RAAN
297.354°
Arg. of periapsis
7.4004°
True anomaly
352.71915°
Mean anomaly
352.734°
Eccentric anomaly
352.72657°
Mean motion
3.63263 °/min
Orbital period
99.1 mins
BSTAR
0.0012329
Loading maneuver chart data...
Computing Atmospheric mass density...

Documentation

Showing up to 5 results
|